This demonstration page uses our WeatherBlox Daily Observations layout. Learn more.

41.55636, -103.73856

Hourly Observations for August 7, 2019

Temp ( °F °C ) Dew Point ( °F °C ) Humidity (%) Winds ( mph kmh ) Pressure ( in mb ) Visibility ( mi km ) Precip ( " mm )
12:53 am 00:53 Clear 65 18.3 60 15.6 84 84 NNE 3 6 29.83 1010 10 16.09344 0 0
1:53 am 01:53 Mostly Cloudy 69 20.6 61 16.1 76 76 NW 5 7 29.85 1011 10 16.09344 0 0
2:22 am 02:22 Partly Cloudy 66 19 57 14 73 73 ENE 12 19 29.83 1010 10 16.09344 0 0
2:53 am 02:53 Clear 67 19.4 58 14.4 73 73 SSE 7 11 29.83 1010 10 16.09344 0.05 1.27
3:53 am 03:53 Clear 67 19.4 58 14.4 73 73 S 3 6 29.83 1010 10 16.09344 0 0
4:53 am 04:53 Clear 62 16.7 60 15.6 93 93 NNW 6 9 29.83 1010 10 16.09344 0 0
5:53 am 05:53 Clear 62 16.7 58 14.4 86 86 NW 7 11 29.85 1011 10 16.09344 0 0
6:53 am 06:53 Sunny 63 17.2 60 15.6 90 90 WNW 6 9 29.88 1012 10 16.09344 0 0
7:53 am 07:53 Sunny 65 18.3 61 16.1 87 87 Calm 29.88 1012 10 16.09344 0 0
8:53 am 08:53 Sunny 74 23.3 61 16.1 64 64 W 5 7 29.88 1012 10 16.09344 0 0
9:53 am 09:53 Sunny 79 26.1 59 15 50 50 W 8 13 29.88 1012 10 16.09344 0 0
10:53 am 10:53 Sunny 83 28.3 59 15 44 44 Calm 29.88 1012 10 16.09344 0 0
11:53 am 11:53 Sunny 85 29.4 59 15 42 42 S 7 11 29.88 1012 10 16.09344 0 0
12:53 pm 12:53 Sunny 90 32.2 56 13.3 32 32 SSE 13 20 29.85 1011 10 16.09344 0 0
1:53 pm 13:53 Sunny 90 32.2 57 13.9 33 33 ESE 9 15 29.83 1010 10 16.09344 0 0
2:53 pm 14:53 Sunny 92 33.3 54 12.2 28 28 S 7 11 29.8 1009 10 16.09344 0 0
3:53 pm 15:53 Sunny 89 31.7 55 12.8 31 31 SSE 8 13 29.8 1009 10 16.09344 0 0
4:53 pm 16:53 Sunny 84 28.9 57 13.9 40 40 SSE 9 15 29.83 1010 10 16.09344 0 0
5:19 pm 17:19 Mostly Cloudy with Nearby Thunderstorms 80 26.7 64 17.8 58 58 ESE 7 11 29.68 1005 10 16.09344 0.001 0.001
5:34 pm 17:34 Cloudy with Light Rain 82 28 55 13 40 40 SW 12 19 29.68 1005 10 16.09344 0 0
5:53 pm 17:53 Mostly Cloudy with Nearby Thunderstorms 79 26.1 54 12.2 42 42 WSW 17 28 29.83 1010 10 16.09344 0.001 0.001
6:17 pm 18:17 Sunny 75 23.9 54 12.2 48 48 SSW 15 24 29.77 1008 10 16.09344 0.001 0.001
6:53 pm 18:53 Mostly Cloudy with Light Rain 74 23.3 56 13.3 54 54 SSE 6 9 29.85 1011 10 16.09344 0.001 0.001
7:30 pm 19:30 Cloudy with Nearby Thunderstorms 71 21.7 59 15 66 66 N 14 22 29.85 1011 10 16.09344 0.001 0.001
7:37 pm 19:37 Cloudy with Light Thunderstorms 71 21.7 62 16.7 73 73 N 17 28 29.88 1012 10 16.09344 0.001 0.001
7:53 pm 19:53 Cloudy with Nearby Thunderstorms 68 20 61 16.1 78 78 NE 17 28 29.97 1015 10 16.09344 0.001 0.001
8:00 pm 20:00 Mostly Cloudy with Nearby Thunderstorms 67 19.4 62 16.7 84 84 ENE 14 22 29.91 1013 10 16.09344 0.001 0.001
8:21 pm 20:21 Mostly Cloudy with Light Rain 68 20 60 15.6 76 76 NE 16 26 29.91 1013 10 16.09344 0.001 0.001
8:53 pm 20:53 Partly Cloudy 68 20 57 13.9 68 68 E 18 30 29.91 1013 10 16.09344 0.001 0.001
9:10 pm 21:10 Mostly Clear 67 19.4 57 13.9 71 71 SE 15 24 29.88 1012 10 16.09344 0 0
9:53 pm 21:53 Clear 66 18.9 60 15.6 81 81 ESE 13 20 29.91 1013 10 16.09344 0 0
10:53 pm 22:53 Clear 65 18.3 61 16.1 87 87 Calm 29.88 1012 10 16.09344 0 0
11:53 pm 23:53 Clear 61 16.1 60 15.6 97 97 W 3 6 29.91 1013 10 16.09344 0 0

Powered by AerisWeather